Torna al catalogo

ARICA 2

AttivoRadioamatoreSSO
NORAD 68796·PAYLOAD·🇯🇵 Japan

Lanciato Apr 23, 2026 da Rocket Lab Launch Complex 1

Loading…

Prossimi Passaggi (prossime 24 ore)

TLE

AggiornatoSource: AMSAT

Epoca: Sep 14, 2026, 05:34 UTC

1 68796U 26088E   26257.23254768  .00004072  00000-0  26054-3 0  9992
2 68796  97.5188  44.6937 0016472 130.4520 229.8149 15.09031668 21720

Traccia ARICA 2 in tempo reale con AllMySat

Download on the App Store